Location: Famechon
(49.7599°N, 2.0615°E)
Time: 04:06:10
(UTC+00:00)

NOAA 6 - Visible Passes

Search period start: 29 September 2023 00:00
Search period end: 09 October 2023 00:00
Orbit: 771 x 784 km, 98.6° (Epoch: 28 September)

Date Brightness Start Highest point End Pass type
(mag) Time Alt. Az. Time Alt. Az. Time Alt. Az.
29 Sep 6.9 19:21:11 10° SW 19:24:30 17° W 19:27:52 10° NW visible
30 Sep 6.0 18:46:30 10° SSW 18:51:03 31° W 18:55:39 10° NNW visible
01 Oct 4.8 18:12:42 10° S 18:17:45 59° WSW 18:22:52 10° NNW visible
02 Oct 6.9 19:21:06 10° SW 19:24:26 17° W 19:27:49 10° NW visible
03 Oct 6.0 18:46:25 10° SSW 18:50:59 32° W 18:55:36 10° NNW visible
04 Oct 4.8 18:12:37 10° S 18:17:41 59° WSW 18:22:49 10° NNW visible
05 Oct 6.9 19:21:00 10° SW 19:24:22 17° W 19:27:46 10° NW visible
06 Oct 6.0 18:46:20 10° SSW 18:50:55 32° W 18:55:32 10° NNW visible
07 Oct 4.7 18:12:32 10° S 18:17:36 59° WSW 18:22:44 10° NNW visible
08 Oct 4.0 17:39:20 10° SSE 17:44:28 76° ENE 17:49:40 10° NNW visible
08 Oct 6.9 19:20:54 10° SW 19:24:17 17° W 19:27:42 10° NW visible
